This is the latest recevied weather packets stored in our database for station/object K9ZOG. If no packets are shown the sender has not sent any weather packets the latest 10 day(s).
| Time | Temp. | Humidity | Pressure | Rain* | Wind** | Luminosity | Snow |
|---|---|---|---|---|---|---|---|
| 1777733953 | 7.78° C | 55% | 1019.2 hPa | 0 mm | - | 743 W/m² | - |
| 1777733652 | 7.22° C | 55% | 1019.2 hPa | 0 mm | - | 577 W/m² | - |
| 1777733352 | 7.22° C | 56% | 1019.2 hPa | 0 mm | - | 700 W/m² | - |
| 1777733053 | 7.22° C | 59% | 1019.2 hPa | 0 mm | - | 614 W/m² | - |
| 1777732753 | 7.22° C | 59% | 1019.3 hPa | 0 mm | - | 165 W/m² | - |
| 1777732453 | 7.22° C | 57% | 1019.2 hPa | 0 mm | - | 289 W/m² | - |
| 1777732152 | 6.67° C | 56% | 1019.2 hPa | 0 mm | - | 462 W/m² | - |
| 1777731853 | 6.67° C | 56% | 1019.2 hPa | 0 mm | - | 416 W/m² | - |
| 1777731553 | 6.67° C | 57% | 1019.2 hPa | 0 mm | - | 239 W/m² | - |
| 1777731252 | 6.67° C | 57% | 1019.3 hPa | 0 mm | - | 266 W/m² | - |
| 1777730953 | 6.67° C | 56% | 1019.3 hPa | 0 mm | - | 403 W/m² | - |
| 1777730653 | 6.67° C | 56% | 1019.2 hPa | 0 mm | - | 290 W/m² | - |
| 1777730352 | 6.11° C | 57% | 1019.2 hPa | 0 mm | - | 140 W/m² | - |
| 1777730052 | 6.11° C | 55% | 1019.1 hPa | 0 mm | - | 249 W/m² | - |
| 1777729753 | 6.11° C | 55% | 1019.1 hPa | 0 mm | - | 169 W/m² | - |
| 1777729452 | 6.11° C | 56% | 1019.2 hPa | 0 mm | - | 142 W/m² | - |
| 1777729152 | 5.56° C | 58% | 1019.1 hPa | 0 mm | - | 162 W/m² | - |
| 1777728853 | 5.56° C | 56% | 1019.2 hPa | 0 mm | - | 60 W/m² | - |
| 1777728553 | 5.56° C | 58% | 1019.1 hPa | 0 mm | - | 58 W/m² | - |
| 1777728252 | 5.56° C | 58% | 1019.1 hPa | 0 mm | - | 61 W/m² | - |
| 1777727953 | 5° C | 62% | 1019.1 hPa | 0 mm | - | 55 W/m² | - |
| 1777727653 | 5° C | 62% | 1019.1 hPa | 0 mm | - | 59 W/m² | - |
| 1777727352 | 5° C | 65% | 1019.1 hPa | 0 mm | - | 54 W/m² | - |
| 1777727054 | 4.44° C | 66% | 1019 hPa | 0 mm | - | 51 W/m² | - |
| 1777726752 | 4.44° C | 68% | 1019 hPa | 0 mm | - | 54 W/m² | - |
* Rain latest hour (hover to see other rain measurements)
** Current wind speed in m/s (hover to see current wind gust speed)